INTELSAT 906 (IS-906)

Last updated on Thu Nov 06 2025 00:02:45 GMT+0000 (Coordinated Universal Time)

1 27513U 02041A 25308.97663233 .00000027 00000+0 00000+0 0 9999 2 27513 5.2314 75.6778 0005230 176.9185 207.6156 1.00270763 84782
UTC large
Height (km)
Speed (km/s)
/
Latitude / Longitude
Inclination (degrees)
Orbital Period (minutes)
Azimuth
Elevation
Range (km)
Doppler Factor

Next 0 passes for location: London (51.5072 / 0.1276)

Sorry there are no passes over London.